Weather History for Kirksville, MO

Change the Weather History Date:

Saturday, November 24, 2012

  Actual Average Record
Temperature  
Mean Temperature 25 °F 36 °F  
Max Temperature 36 °F 46 °F 65 °F (1966)
Min Temperature 14 °F 27 °F 4 °F (1950)
Degree Days  
Heating Degree Days 40 29  
Month to date heating degree days 508 554  
Since 1 July heating degree days 1087 1043  
Cooling Degree Days 0 0  
Month to date cooling degree days 2 0  
Year to date cooling degree days 1321 939  
Moisture  
Dew Point 16 °F    
Average Humidity 68    
Maximum Humidity 88    
Minimum Humidity 47    
Precipitation  
Precipitation 0.00 in 0.06 in 0.52 in (2001)
Month to date precipitation 1.73 2.22  
Year to date precipitation 26.42 37.06  
Sea Level Pressure  
Sea Level Pressure 30.23 in    
Wind  
Wind Speed 6 mph (SW)    
Max Wind Speed 12 mph    
Max Gust Speed 15 mph    
Visibility 10 miles    
Events      
T = Trace of Precipitation, MM = Missing Value Source: NWS Daily Summary

Daily Weather History Graph

Daily Weather History Graph

Search for Another Location

Airport:

Trip Planner

Search our weather history database for the weather conditions in past years. The results will help you decide how hot, cold, wet, or windy it might be!

Date:

Astronomy

Nov. 24, 2012 Rise Set
Actual Time 7:06 AM CST 4:47 PM CST
Civil Twilight 6:36 AM CST 5:17 PM CST
Nautical Twilight 6:03 AM CST 5:50 PM CST
Astronomical Twilight 5:30 AM CST 6:23 PM CST
Moon 2:32 PM CST (11/24) 3:23 AM CST (11/24)
Length of Visible Light 10h 40m
Length of Day
9h 41m
Waxing Gibbous, 87% of the Moon is Illuminated
Nov 24
Waxing Gibbous
Nov 28
Full
Dec 6
Last Quarter
Dec 13
New
Dec 19
First Quarter

Hourly Weather History & Observations

Time (CST) Temp. Windchill Dew Point Humidity Pressure Visibility Wind Dir Wind Speed Gust Speed Precip Events Conditions
12:55 AM 19.9 °F 13.4 °F 14.0 °F 78% 30.40 in 10.0 mi NW 4.6 mph - N/A   Clear
1:55 AM 19.0 °F 12.3 °F 12.9 °F 77% 30.40 in 10.0 mi WNW 4.6 mph - N/A   Clear
2:55 AM 17.1 °F 11.7 °F 12.9 °F 84% 30.40 in 10.0 mi West 3.5 mph - N/A   Clear
3:55 AM 16.0 °F 10.4 °F 12.0 °F 84% 30.39 in 10.0 mi West 3.5 mph - N/A   Clear
4:55 AM 16.0 °F - 12.9 °F 88% 30.37 in 10.0 mi Calm Calm - N/A   Clear
5:55 AM 16.0 °F 10.4 °F 12.0 °F 84% 30.38 in 10.0 mi West 3.5 mph - N/A   Clear
6:55 AM 16.0 °F 8.8 °F 12.0 °F 84% 30.39 in 10.0 mi West 4.6 mph - N/A   Clear
7:55 AM 18.0 °F 12.7 °F 14.0 °F 84% 30.39 in 10.0 mi West 3.5 mph - N/A   Clear
8:55 AM 21.9 °F 17.2 °F 16.0 °F 78% 30.38 in 10.0 mi West 3.5 mph - N/A   Clear
9:55 AM 24.1 °F 19.7 °F 16.0 °F 71% 30.37 in 10.0 mi West 3.5 mph - N/A   Clear
10:55 AM 26.1 °F 20.5 °F 16.0 °F 66% 30.35 in 10.0 mi WSW 4.6 mph - N/A   Clear
11:55 AM 30.0 °F 24.1 °F 17.1 °F 59% 30.30 in 10.0 mi SSW 5.8 mph - N/A   Clear
12:55 PM 33.1 °F 26.1 °F 17.1 °F 52% 30.25 in 10.0 mi South 8.1 mph - N/A   Clear
1:55 PM 35.1 °F 28.6 °F 17.1 °F 48% 30.21 in 10.0 mi South 8.1 mph - N/A   Clear
2:55 PM 35.1 °F 28.6 °F 18.0 °F 50% 30.17 in 10.0 mi South 8.1 mph - N/A   Clear
3:55 PM 35.1 °F 28.6 °F 18.0 °F 50% 30.13 in 10.0 mi South 8.1 mph - N/A   Clear
4:55 PM 32.0 °F 23.6 °F 19.0 °F 59% 30.08 in 10.0 mi SSE 10.4 mph - N/A   Clear
5:55 PM 30.0 °F 21.7 °F 19.0 °F 64% 30.06 in 10.0 mi SSE 9.2 mph - N/A   Clear
6:55 PM 30.0 °F 23.2 °F 19.0 °F 64% 30.06 in 10.0 mi South 6.9 mph - N/A   Clear
7:55 PM 30.9 °F 25.2 °F 19.0 °F 61% 30.04 in 10.0 mi South 5.8 mph - N/A   Clear
8:55 PM 30.9 °F 24.3 °F 19.9 °F 64% 30.01 in 10.0 mi South 6.9 mph - N/A   Clear
9:55 PM 32.0 °F 26.4 °F 19.9 °F 61% 29.99 in 10.0 mi South 5.8 mph - N/A   Clear
10:55 PM 34.0 °F 28.8 °F 21.0 °F 59% 29.96 in 10.0 mi SSW 5.8 mph - N/A   Clear
11:55 PM 32.0 °F 25.6 °F 21.0 °F 64% 29.95 in 10.0 mi South 6.9 mph - N/A   Clear